Weather History for MMMD - July, 2013

Change the Weather History Date:

Tuesday, July 9, 2013

  Actual Average Record
Temperature  
Mean Temperature 84 °F -  
Max Temperature 94 °F 93 °F 96 °F (2005)
Min Temperature 73 °F 73 °F 71 °F (2000)
Cooling Degree Days 18    
Growing Degree Days 34 (Base 50)    
Moisture  
Dew Point 72 °F    
Average Humidity 74    
Maximum Humidity 91    
Minimum Humidity 46    
Precipitation  
Precipitation 0.00 in - - ()
Sea Level Pressure  
Sea Level Pressure 30.04 in    
Wind  
Wind Speed 6 mph ()    
Max Wind Speed 17 mph    
Max Gust Speed -    
Visibility 6.5 miles    
Events Thunderstorm    
Averages and records for this station are not official NWS values.
T = Trace of Precipitation, MM = Missing Value Source: Averaged Metar Reports

Daily Weather History Graph

Daily Weather History Graph

Search for Another Location

Airport or City:

Trip Planner

Search our weather history database for the weather conditions in past years. The results will help you decide how hot, cold, wet, or windy it might be!

Date:

Astronomy

Jul. 09, 2013 Rise Set
Actual Time 6:23 AM CDT 7:43 PM CDT
Civil Twilight 5:59 AM CDT 8:08 PM CDT
Nautical Twilight 5:30 AM CDT 8:37 PM CDT
Astronomical Twilight 4:59 AM CDT 9:07 PM CDT
Moon 7:32 AM CDT (7/9) 8:40 PM CDT (7/9)
Length of Visible Light 14h 09m
Length of Day
13h 20m
New Moon, 2% of the Moon is Illuminated
Jul 9
New Moon
Jul 15
First Quarter
Jul 22
Full
Jul 29
Last Quarter
Aug 6
New

Hourly Weather History & Observations

Time (CDT) Temp. Heat Index Dew Point Humidity Pressure Visibility Wind Dir Wind Speed Gust Speed Precip Events Conditions
12:46 AM 77.0 °F - 71.6 °F 83% 30.05 in 7.0 mi ENE 6.9 mph - N/A   Clear
12:50 AM 78 °F - 74 °F 85% 30.04 in 3 mi ESE 6.7 mph - -  
1:46 AM 77.0 °F - 71.6 °F 83% 30.03 in 7.0 mi ENE 6.9 mph - N/A   Clear
2:45 AM 75.2 °F - 71.6 °F 89% 30.02 in 7.0 mi East 5.8 mph - N/A   Clear
3:50 AM 75 °F - 73 °F 90% 30.01 in 3 mi ENE 2.2 mph - -  
3:54 AM 75.2 °F - 69.8 °F 83% 30.00 in 7.0 mi East 4.6 mph - N/A   Clear
4:47 AM 73.4 °F - 69.8 °F 88% 30.00 in 7.0 mi ENE 4.6 mph - N/A   Clear
5:47 AM 73.4 °F - 69.8 °F 88% 30.01 in 7.0 mi ENE 4.6 mph - N/A   Scattered Clouds
6:42 AM 75.2 °F - 71.6 °F 89% 30.02 in 7.0 mi Calm Calm - N/A   Mostly Cloudy
6:50 AM 76 °F - 74 °F 91% 30.04 in 6 mi East 2.2 mph - -   Scattered Clouds
7:49 AM 78.8 °F - 73.4 °F 83% 30.04 in 7.0 mi Calm Calm - N/A   Mostly Cloudy
8:45 AM 80.6 °F 85.4 °F 73.4 °F 79% 30.05 in 7.0 mi ENE 5.8 mph - N/A   Scattered Clouds
9:22 AM 82.4 °F 88.2 °F 73.4 °F 74% 30.07 in 7.0 mi ENE 9.2 mph - N/A   Mostly Cloudy
9:47 AM 84.2 °F 90.9 °F 73.4 °F 70% 30.04 in 7.0 mi East 12.7 mph - N/A   Mostly Cloudy
9:50 AM 85 °F - 76 °F 68% 30.08 in 6 mi ESE 6.7 mph - -   Mostly Cloudy
10:45 AM 86.0 °F 93.4 °F 73.4 °F 66% 30.08 in 7.0 mi East 9.2 mph - N/A   Mostly Cloudy
11:46 AM 86.0 °F 93.4 °F 73.4 °F 66% 30.07 in 7.0 mi East 10.4 mph - N/A   Mostly Cloudy
12:45 PM 89.6 °F 96.2 °F 71.6 °F 55% 30.07 in 7.0 mi ESE 10.4 mph - N/A   Mostly Cloudy
12:50 PM 91 °F - 76 °F 54% 30.06 in 6 mi SSE 6.7 mph - -   Partly Cloudy
1:44 PM 89.6 °F 96.2 °F 71.6 °F 55% 30.03 in 7.0 mi ESE 9.2 mph - N/A   Mostly Cloudy
2:48 PM 91.4 °F 96.8 °F 69.8 °F 49% 30.02 in 7.0 mi South 11.5 mph - N/A   Mostly Cloudy
3:40 PM 91.4 °F 95.4 °F 68.0 °F 46% 30.02 in 7.0 mi ESE 11.5 mph - N/A Thunderstorm Thunderstorm
3:50 PM 89 °F - 78 °F 63% 30.00 in 6 mi ENE 11.2 mph - -   Partly Cloudy
4:49 PM 84.2 °F 90.9 °F 73.4 °F 70% 29.99 in 7.0 mi NNE 11.5 mph - N/A Thunderstorm Thunderstorm
5:56 PM 78.8 °F - 68.0 °F 69% 30.02 in 7.0 mi SE 17.3 mph - N/A Thunderstorm Thunderstorm
6:48 PM 80.6 °F 83.9 °F 69.8 °F 70% 30.05 in 7.0 mi ESE 9.2 mph - N/A   Mostly Cloudy
6:50 PM 80 °F - 72 °F 72% 30.02 in 6 mi ESE 4.5 mph - -   Partly Cloudy
7:50 PM 78.8 °F - 69.8 °F 74% 30.02 in 7.0 mi ENE 11.5 mph - N/A   Mostly Cloudy
8:42 PM 77.0 °F - 69.8 °F 78% 30.02 in 7.0 mi ENE 6.9 mph - N/A   Mostly Cloudy
9:45 PM 77.0 °F - 69.8 °F 78% 30.06 in 7.0 mi East 6.9 mph - N/A   Mostly Cloudy
9:50 PM 78 °F - 73 °F 80% 30.05 in 3 mi ESE 4.5 mph - -   Partly Cloudy
10:42 PM 78.8 °F - 69.8 °F 74% 30.05 in 7.0 mi ESE 8.1 mph - N/A   Scattered Clouds
11:47 PM 78.8 °F - 69.8 °F 74% 30.05 in 7.0 mi East 4.6 mph - N/A   Clear